| time (UTC) | temp F | wind direction | speed knots | gust knots | rain 1hr in | rain 24hr in | rain mn in | humidity % | barometer mb |
| 20260903021536 | 67 | 146 | 0.9 | 5.2 | 0.25 | 0.42 | 0.42 | 91 | 1014.3 |
| 20260903020034 | 68 | 28 | 0.0 | 8.7 | 0.25 | 0.42 | 0.42 | 89 | 1015.2 |
| 20260903014533 | 72 | 328 | 8.7 | 12.2 | 0.00 | 0.17 | 0.17 | 91 | 1016.5 |
| 20260903013041 | 72 | 165 | 0.0 | 6.1 | 0.00 | 0.17 | 0.17 | 91 | 1015.4 |
| 20260903011532 | 72 | 117 | 0.0 | 0.9 | 0.00 | 0.17 | 0.17 | 91 | 1015.2 |
| 20260903010036 | 72 | 117 | 0.0 | 0.9 | 0.00 | 0.17 | 0.17 | 91 | 1014.1 |
| 20260903004531 | 72 | 115 | 0.0 | 0.0 | 0.00 | 0.17 | 0.17 | 91 | 1014.2 |
| 20260903003037 | 72 | 169 | 0.0 | 6.1 | 0.00 | 0.17 | 0.17 | 90 | 1013.6 |
| 20260903001532 | 73 | 115 | 2.6 | 11.3 | 0.00 | 0.17 | 0.17 | 90 | 1012.6 |
| 20260903000031 | 73 | 156 | 0.0 | 6.1 | 0.00 | 0.17 | 0.17 | 90 | 1013.3 |
| 20260902234529 | 74 | 198 | 0.0 | 11.3 | 0.00 | 0.17 | 0.17 | 88 | 1013.6 |
| 20260902233029 | 75 | 153 | 0.0 | 2.6 | 0.00 | 0.17 | 0.17 | 87 | 1014.0 |
| 20260902231531 | 75 | 151 | 0.0 | 0.0 | 0.00 | 0.17 | 0.17 | 87 | 1014.0 |
| 20260902230028 | 75 | 151 | 0.0 | 0.0 | 0.00 | 0.17 | 0.17 | 86 | 1013.9 |
| 20260902224544 | 76 | 112 | 0.0 | 0.0 | 0.00 | 0.17 | 0.17 | 86 | 1013.3 |
| 20260902223027 | 76 | 117 | 0.9 | 6.1 | 0.00 | 0.17 | 0.17 | 85 | 1013.1 |
| 20260902221534 | 76 | 130 | 0.0 | 5.2 | 0.00 | 0.17 | 0.17 | 85 | 1013.6 |
| 20260902220046 | 77 | 196 | 0.0 | 6.1 | 0.00 | 0.18 | 0.17 | 84 | 1013.6 |
| 20260902214522 | 77 | 128 | 0.0 | 6.1 | 0.00 | 0.18 | 0.17 | 83 | 1013.9 |
| 20260902213022 | 77 | 123 | 0.9 | 7.8 | 0.00 | 0.18 | 0.17 | 83 | 1014.2 |
| 20260902211525 | 77 | 186 | 0.0 | 7.0 | 0.00 | 0.18 | 0.17 | 82 | 1014.4 |
| 20260902210022 | 77 | 140 | 0.0 | 6.1 | 0.00 | 0.18 | 0.17 | 82 | 1014.5 |
| 20260902204523 | 78 | 148 | 0.0 | 3.5 | 0.00 | 0.18 | 0.17 | 82 | 1014.7 |
| 20260902203014 | 77 | 111 | 0.0 | 6.1 | 0.00 | 0.18 | 0.17 | 82 | 1014.9 |
| 20260902201534 | 77 | 123 | 1.7 | 9.6 | 0.00 | 0.18 | 0.17 | 84 | 1015.0 |
| 20260902200009 | 76 | 171 | 0.0 | 9.6 | 0.00 | 0.18 | 0.17 | 84 | 1014.9 |
| 20260902194519 | 76 | 157 | 0.0 | 7.8 | 0.00 | 0.18 | 0.17 | 85 | 1015.0 |
| 20260902193016 | 74 | 156 | 0.9 | 8.7 | 0.01 | 0.18 | 0.17 | 86 | 1015.1 |
| 20260902191505 | 74 | 153 | 0.0 | 5.2 | 0.01 | 0.18 | 0.17 | 87 | 1015.4 |
| 20260902190004 | 72 | 119 | 1.7 | 6.1 | 0.01 | 0.18 | 0.17 | 91 | 1015.7 |
| 20260902184504 | 72 | 121 | 0.0 | 2.6 | 0.01 | 0.18 | 0.17 | 90 | 1016.2 |
| 20260902183003 | 72 | 121 | 0.0 | 0.9 | 0.00 | 0.17 | 0.16 | 90 | 1016.7 |
| 20260902181504 | 72 | 117 | 0.9 | 8.7 | 0.00 | 0.17 | 0.16 | 89 | 1015.8 |
| 20260902180006 | 73 | 123 | 2.6 | 7.8 | 0.00 | 0.17 | 0.16 | 88 | 1016.0 |
| 20260902174502 | 74 | 190 | 0.0 | 2.6 | 0.00 | 0.17 | 0.16 | 87 | 1016.1 |
| 20260902173003 | 74 | 179 | 0.0 | 4.3 | 0.00 | 0.17 | 0.16 | 86 | 1015.6 |
| 20260902171501 | 73 | 110 | 2.6 | 9.6 | 0.00 | 0.17 | 0.16 | 89 | 1015.3 |
| 20260902170000 | 74 | 108 | 1.7 | 7.8 | 0.00 | 0.17 | 0.16 | 89 | 1015.3 |
| 20260902164603 | 74 | 140 | 0.0 | 6.1 | 0.00 | 0.17 | 0.16 | 90 | 1015.7 |
| 20260902163158 | 73 | 130 | 1.7 | 6.1 | 0.00 | 0.17 | 0.16 | 91 | 1016.0 |
| 20260902161556 | 72 | 127 | 0.0 | 9.6 | 0.00 | 0.17 | 0.16 | 91 | 1016.6 |
| 20260902160105 | 72 | 165 | 0.9 | 6.1 | 0.00 | 0.17 | 0.16 | 92 | 1016.5 |
| 20260902154552 | 71 | 40 | 0.0 | 2.6 | 0.00 | 0.17 | 0.16 | 92 | 1016.6 |
| 20260902153054 | 70 | 40 | 0.0 | 0.0 | 0.00 | 0.17 | 0.16 | 93 | 1016.3 |
| 20260902151548 | 70 | 40 | 0.0 | 0.9 | 0.01 | 0.17 | 0.16 | 93 | 1016.3 |
| 20260902150046 | 69 | 40 | 0.0 | 0.0 | 0.03 | 0.17 | 0.16 | 93 | 1016.6 |
| 20260902144546 | 69 | 40 | 0.0 | 0.0 | 0.06 | 0.17 | 0.16 | 93 | 1016.8 |
| 20260902143045 | 68 | 40 | 0.0 | 0.0 | 0.13 | 0.17 | 0.16 | 93 | 1016.9 |
| 20260902141546 | 68 | 40 | 0.0 | 0.0 | 0.14 | 0.16 | 0.15 | 93 | 1017.1 |
| 20260902140045 | 68 | 39 | 3.5 | 5.2 | 0.14 | 0.15 | 0.14 | 92 | 1015.9 |
| 20260902134551 | 68 | 37 | 0.0 | 0.0 | 0.10 | 0.11 | 0.10 | 92 | 1017.1 |
| 20260902133043 | 68 | 37 | 0.0 | 1.7 | 0.04 | 0.05 | 0.04 | 92 | 1017.0 |
| 20260902131545 | 68 | 37 | 0.0 | 0.9 | 0.02 | 0.03 | 0.02 | 92 | 1017.1 |
| 20260902130043 | 68 | 36 | 0.0 | 5.2 | 0.00 | 0.01 | 0.00 | 92 | 1017.1 |
| 20260902124539 | 69 | 36 | 0.0 | 1.7 | 0.00 | 0.01 | 0.00 | 92 | 1016.5 |
| 20260902123044 | 69 | 34 | 0.0 | 4.3 | 0.00 | 0.01 | 0.00 | 92 | 1016.0 |
| 20260902121535 | 69 | 29 | 0.0 | 4.3 | 0.00 | 0.01 | 0.00 | 92 | 1015.6 |
| 20260902120033 | 68 | 23 | 0.0 | 4.3 | 0.00 | 0.02 | 0.00 | 93 | 1015.6 |
| 20260902114530 | 68 | 12 | 0.0 | 0.0 | 0.00 | 0.02 | 0.00 | 93 | 1015.7 |
| 20260902113035 | 67 | 11 | 0.0 | 0.0 | 0.00 | 0.02 | 0.00 | 93 | 1015.2 |
| 20260902111528 | 66 | 11 | 0.0 | 0.0 | 0.00 | 0.02 | 0.00 | 93 | 1015.3 |
| 20260902110038 | 65 | 11 | 0.0 | 0.0 | 0.00 | 0.02 | 0.00 | 92 | 1015.3 |
| 20260902104526 | 66 | 11 | 0.0 | 0.0 | 0.00 | 0.02 | 0.00 | 93 | 1015.2 |
| 20260902103025 | 66 | 11 | 0.0 | 0.0 | 0.00 | 0.02 | 0.00 | 93 | 1015.4 |
| 20260902101529 | 65 | 11 | 0.0 | 0.0 | 0.00 | 0.02 | 0.00 | 92 | 1015.3 |
| 20260902100022 | 66 | 11 | 0.0 | 0.0 | 0.00 | 0.02 | 0.00 | 93 | 1015.3 |
| 20260902094524 | 66 | 11 | 0.0 | 0.0 | 0.00 | 0.02 | 0.00 | 93 | 1015.4 |
| 20260902093029 | 66 | 11 | 0.0 | 0.0 | 0.00 | 0.02 | 0.00 | 93 | 1015.4 |
| 20260902091517 | 67 | 11 | 0.0 | 0.0 | 0.00 | 0.02 | 0.00 | 93 | 1015.6 |
| 20260902090018 | 66 | 11 | 0.0 | 0.0 | 0.00 | 0.02 | 0.02 | 93 | 1015.7 |
| 20260902084520 | 66 | 11 | 0.0 | 0.0 | 0.00 | 0.02 | 0.02 | 93 | 1015.7 |
| 20260902083018 | 66 | 11 | 0.0 | 0.0 | 0.00 | 0.02 | 0.02 | 93 | 1015.7 |
| 20260902081519 | 66 | 11 | 0.0 | 0.0 | 0.00 | 0.02 | 0.02 | 93 | 1015.5 |
| 20260902080017 | 67 | 11 | 0.0 | 0.0 | 0.00 | 0.02 | 0.02 | 93 | 1015.6 |
| 20260902074516 | 67 | 11 | 0.0 | 0.0 | 0.00 | 0.02 | 0.02 | 93 | 1015.6 |
| 20260902073017 | 67 | 11 | 0.0 | 0.0 | 0.00 | 0.02 | 0.02 | 93 | 1015.5 |
| 20260902071515 | 67 | 11 | 0.0 | 0.0 | 0.00 | 0.02 | 0.02 | 93 | 1015.7 |
| 20260902070019 | 67 | 11 | 0.0 | 0.0 | 0.00 | 0.02 | 0.02 | 93 | 1015.8 |
| 20260902064512 | 67 | 11 | 0.0 | 0.0 | 0.00 | 0.02 | 0.02 | 93 | 1015.7 |
| 20260902063014 | 67 | 11 | 0.0 | 0.0 | 0.00 | 0.02 | 0.02 | 93 | 1015.5 |
| 20260902061531 | 67 | 11 | 0.0 | 0.0 | 0.00 | 0.02 | 0.02 | 93 | 1015.8 |
| 20260902060113 | 67 | 11 | 0.0 | 0.0 | 0.00 | 0.02 | 0.02 | 93 | 1016.1 |
| 20260902054515 | 67 | 11 | 0.0 | 0.0 | 0.00 | 0.02 | 0.02 | 93 | 1016.3 |
| 20260902053013 | 67 | 11 | 0.0 | 0.0 | 0.00 | 0.02 | 0.02 | 92 | 1016.2 |
| 20260902051508 | 67 | 11 | 0.0 | 0.0 | 0.00 | 0.03 | 0.02 | 92 | 1016.0 |
| 20260902050008 | 68 | 11 | 0.0 | 0.0 | 0.00 | 0.03 | 0.02 | 92 | 1015.8 |
| 20260902044506 | 68 | 11 | 0.0 | 0.0 | 0.00 | 0.03 | 0.02 | 92 | 1015.7 |
| 20260902043003 | 68 | 11 | 0.0 | 0.0 | 0.00 | 0.03 | 0.02 | 92 | 1015.5 |
| 20260902041503 | 68 | 11 | 0.0 | 0.0 | 0.00 | 0.03 | 0.02 | 92 | 1015.2 |
| 20260902040001 | 69 | 11 | 0.0 | 0.0 | 0.00 | 0.03 | 0.02 | 92 | 1015.1 |
| 20260902034502 | 69 | 11 | 0.0 | 0.0 | 0.00 | 0.03 | 0.02 | 92 | 1015.1 |
| 20260902033001 | 69 | 11 | 0.0 | 0.0 | 0.00 | 0.03 | 0.02 | 92 | 1015.0 |
| 20260902024600 | 69 | 11 | 0.0 | 0.0 | 0.00 | 0.03 | 0.02 | 90 | 1015.0 |
| 20260902023109 | 70 | 360 | 0.0 | 0.0 | 0.00 | 0.03 | 0.02 | 91 | 1015.2 |